AEROCUBE 6B

Last updated on Wed Oct 29 2025 00:03:53 GMT+0000 (Coordinated Universal Time)

1 40046U 14033AN 25301.41142123 .00010036 00000+0 89251-3 0 9991 2 40046 97.7031 106.0510 0040943 64.2726 296.2713 14.95635981612069
UTC large
Height (km)
Speed (km/s)
/
Latitude / Longitude
Inclination (degrees)
Orbital Period (minutes)
Azimuth
Elevation
Range (km)
Doppler Factor

Next 0 passes for location: London (51.5072 / 0.1276)

Sorry there are no passes over London.